KB8TTR Weather Reports


time (UTC)temp
C
wind
direction
speed
KPH
gust
KPH
rain 1hr
cm
rain 24hr
cm
rain mn
cm
humidity
%
barometer
mb
20260903042853 26 14 0.0 1.6 0.00 0.00 0.00 82 1015.1
20260903042349 26 13 0.0 0.0 0.00 0.00 0.00 82 1015.0
20260903041845 26 14 0.0 1.6 0.00 0.00 0.00 82 1015.0
20260903041341 26 14 0.0 0.0 0.00 0.00 0.00 82 1015.0
20260903040836 27 14 0.0 0.0 0.00 0.00 0.00 82 1014.8
20260903040335 27 12 3.2 3.2 0.00 0.00 0.00 82 1015.0
20260903035832 27 14 0.0 0.0 0.00 0.00 0.00 82 1014.8
20260903035326 27 13 0.0 0.0 0.00 0.00 0.00 81 1014.8
20260903034822 27 13 0.0 0.0 0.00 0.00 0.00 81 1014.6
20260903034316 27 14 0.0 0.0 0.00 0.00 0.00 81 1014.6
20260903033812 27 13 3.2 4.8 0.00 0.00 0.00 81 1014.5
20260903033307 27 13 1.6 1.6 0.00 0.00 0.00 80 1014.6
20260903032807 27 12 0.0 0.0 0.00 0.00 0.00 80 1014.4
20260903032305 27 11 1.6 1.6 0.00 0.00 0.00 80 1014.1
20260903031758 27 14 1.6 1.6 0.00 0.00 0.00 79 1014.3
20260903031257 27 13 0.0 1.6 0.00 0.00 0.00 79 1014.3
20260903030754 27 13 0.0 1.6 0.00 0.00 0.00 79 1013.8
20260903030249 27 12 0.0 1.6 0.00 0.00 0.00 79 1014.0
20260903025750 27 1 1.6 3.2 0.00 0.00 0.00 79 1014.0
20260903025245 27 12 1.6 1.6 0.00 0.00 0.00 79 1014.3
20260903024740 27 14 1.6 1.6 0.00 0.00 0.00 78 1014.4
20260903024239 27 5 1.6 1.6 0.00 0.00 0.00 78 1014.5
20260903023735 27 11 1.6 1.6 0.00 0.00 0.00 78 1014.7
20260903023231 27 5 1.6 1.6 0.00 0.00 0.00 78 1014.6
20260903022730 27 13 0.0 0.0 0.00 0.00 0.00 79 1014.8
20260903022229 27 12 0.0 0.0 0.00 0.00 0.00 79 1014.8
20260903021724 27 13 0.0 0.0 0.00 0.00 0.00 79 1014.7
20260903021220 27 12 0.0 0.0 0.00 0.00 0.00 79 1014.8
20260903020719 27 13 0.0 0.0 0.00 0.00 0.00 79 1014.9
20260903020214 27 12 0.0 1.6 0.00 0.00 0.00 79 1015.1
20260903015709 27 13 0.0 0.0 0.00 0.00 0.00 79 1015.0
20260903015205 27 11 1.6 1.6 0.00 0.00 0.00 78 1014.9
20260903014700 27 12 0.0 0.0 0.00 0.00 0.00 78 1014.9
20260903014159 28 12 0.0 0.0 0.00 0.00 0.00 77 1014.9
20260903013654 28 13 0.0 0.0 0.00 0.00 0.00 77 1015.1
20260903013154 28 12 0.0 0.0 0.00 0.00 0.00 76 1015.0
20260903012653 28 12 0.0 1.6 0.00 0.00 0.00 76 1014.8
20260903012152 28 12 0.0 0.0 0.00 0.00 0.00 75 1015.0
20260903011653 28 14 0.0 0.0 0.00 0.00 0.00 75 1014.8
20260903011152 28 13 0.0 0.0 0.00 0.00 0.00 75 1014.9
20260903010648 28 12 0.0 1.6 0.00 0.00 0.00 74 1014.5
20260903010147 28 13 0.0 0.0 0.00 0.00 0.00 74 1014.8
20260903005646 28 13 0.0 0.0 0.00 0.00 0.00 74 1014.7
20260903005142 28 12 0.0 1.6 0.00 0.00 0.00 74 1014.4
20260903004637 28 101 0.0 0.0 0.00 0.00 0.00 74 1014.7
20260903004132 28 108 0.0 0.0 0.00 0.00 0.00 73 1014.5
20260903003628 28 107 0.0 0.0 0.00 0.00 0.00 73 1014.8
20260903003123 29 102 0.0 0.0 0.00 0.00 0.00 72 1014.6
20260903002618 29 105 0.0 0.0 0.00 0.00 0.00 72 1014.7
20260903002112 29 101 0.0 0.0 0.00 0.00 0.00 71 1014.6
20260903001607 29 103 0.0 0.0 0.00 0.00 0.00 70 1014.8
20260903001107 30 105 0.0 0.0 0.00 0.00 0.00 70 1014.6
20260903000603 30 103 0.0 0.0 0.00 0.00 0.00 68 1014.8
20260902235601 30 99 0.0 0.0 0.00 0.00 0.00 66 1014.7
20260902235056 30 104 0.0 0.0 0.00 0.00 0.00 65 1014.8
20260902234550 31 103 0.0 1.6 0.00 0.00 0.00 65 1014.8
20260902234049 31 99 0.0 0.0 0.00 0.00 0.00 64 1014.7
20260902233544 31 97 0.0 1.6 0.00 0.00 0.00 63 1014.8
20260902233044 31 93 0.0 0.0 0.00 0.00 0.00 62 1014.5
20260902232538 32 102 1.6 1.6 0.00 0.00 0.00 61 1014.4
20260902232038 32 99 0.0 1.6 0.00 0.00 0.00 60 1014.7
20260902231533 32 119 3.2 3.2 0.00 0.00 0.00 60 1014.6
20260902231033 32 100 1.6 1.6 0.00 0.00 0.00 60 1014.5
20260902230533 32 86 1.6 1.6 0.00 0.00 0.00 60 1014.6
20260902230032 32 108 1.6 1.6 0.00 0.00 0.00 60 1014.6
20260902225528 32 95 1.6 1.6 0.00 0.00 0.00 59 1014.6
20260902225027 32 81 3.2 3.2 0.00 0.00 0.00 59 1014.4
20260902224526 32 82 1.6 3.2 0.00 0.00 0.00 59 1014.6
20260902224022 32 107 1.6 1.6 0.00 0.00 0.00 59 1014.5
20260902223518 32 88 0.0 1.6 0.00 0.00 0.00 58 1014.6
20260902223017 32 83 4.8 4.8 0.00 0.00 0.00 59 1014.4
20260902222516 32 104 0.0 0.0 0.00 0.00 0.00 58 1014.5
20260902222015 32 97 3.2 3.2 0.00 0.00 0.00 59 1014.7
20260902221515 32 80 1.6 1.6 0.00 0.00 0.00 58 1014.6
20260902221010 33 91 1.6 1.6 0.00 0.00 0.00 57 1014.6
20260902220505 33 105 1.6 3.2 0.00 0.00 0.00 57 1014.7
20260902215959 33 108 1.6 1.6 0.00 0.00 0.00 56 1014.5
20260902215456 33 91 3.2 3.2 0.00 0.00 0.00 56 1014.7
20260902214951 33 3 3.2 3.2 0.00 0.00 0.00 55 1014.6
20260902214450 33 89 3.2 3.2 0.00 0.00 0.00 57 1014.7
20260902213944 33 90 1.6 1.6 0.00 0.00 0.00 56 1014.8
20260902213441 33 95 0.0 1.6 0.00 0.00 0.00 56 1014.9
20260902212939 33 53 3.2 3.2 0.00 0.00 0.00 55 1014.9
20260902212436 33 97 3.2 3.2 0.00 0.00 0.00 54 1014.8
20260902211932 33 128 1.6 1.6 0.00 0.00 0.00 54 1014.9
20260902211427 33 354 3.2 3.2 0.00 0.00 0.00 54 1014.9
20260902210922 33 84 3.2 4.8 0.00 0.00 0.00 54 1014.8
20260902210422 33 90 1.6 1.6 0.00 0.00 0.00 55 1015.1
20260902205920 33 92 1.6 1.6 0.00 0.00 0.00 55 1015.0
20260902205415 33 68 1.6 1.6 0.00 0.00 0.00 55 1014.9
20260902204911 33 92 3.2 3.2 0.00 0.00 0.00 54 1014.9
20260902204411 34 155 3.2 4.8 0.00 0.00 0.00 54 1015.0
20260902203907 34 165 1.6 3.2 0.00 0.00 0.00 54 1015.3
20260902203402 34 112 3.2 3.2 0.00 0.00 0.00 55 1015.3
20260902202901 34 113 3.2 3.2 0.00 0.00 0.00 54 1015.2
20260902202357 34 115 1.6 1.6 0.00 0.00 0.00 56 1015.2
20260902201854 34 58 1.6 3.2 0.00 0.00 0.00 54 1015.4
20260902201354 34 84 1.6 1.6 0.00 0.00 0.00 55 1015.5
20260902200849 34 90 3.2 3.2 0.00 0.00 0.00 53 1015.5
20260902200344 35 76 1.6 3.2 0.00 0.00 0.00 54 1015.6
20260902195839 35 96 1.6 3.2 0.00 0.00 0.00 53 1015.5
20260902195338 35 82 3.2 3.2 0.00 0.00 0.00 54 1015.5
20260902194833 34 101 3.2 3.2 0.00 0.00 0.00 55 1015.7
20260902194333 34 84 1.6 1.6 0.00 0.00 0.00 54 1015.6
20260902193829 34 112 3.2 3.2 0.00 0.00 0.00 55 1015.5
20260902193325 34 20 3.2 3.2 0.00 0.00 0.00 55 1015.7
20260902192823 34 24 1.6 1.6 0.00 0.00 0.00 56 1015.7
20260902192322 33 19 1.6 3.2 0.00 0.00 0.00 57 1016.0
20260902191822 33 20 3.2 3.2 0.00 0.00 0.00 56 1015.9
20260902191317 33 354 4.8 9.7 0.00 0.00 0.00 56 1016.2
20260902190812 33 18 1.6 3.2 0.00 0.00 0.00 57 1016.1
20260902190311 33 20 4.8 6.4 0.00 0.00 0.00 58 1016.1
20260902185808 33 20 1.6 1.6 0.00 0.00 0.00 59 1016.1
20260902185306 33 20 3.2 3.2 0.00 0.00 0.00 59 1016.3
20260902184759 33 22 1.6 1.6 0.00 0.00 0.00 59 1016.2
20260902184254 34 21 1.6 1.6 0.00 0.00 0.00 58 1016.2
20260902183749 34 16 1.6 1.6 0.00 0.00 0.00 58 1016.4
20260902183245 34 18 1.6 3.2 0.00 0.00 0.00 57 1016.2
20260902182742 34 13 3.2 3.2 0.00 0.00 0.00 59 1016.2
20260902182238 33 19 1.6 1.6 0.00 0.00 0.00 56 1016.1
20260902181734 34 19 4.8 9.7 0.00 0.00 0.00 54 1016.3
20260902181233 34 18 0.0 0.0 0.00 0.00 0.00 57 1016.3
20260902180728 33 18 0.0 0.0 0.00 0.00 0.00 61 1016.5
20260902180224 33 18 0.0 0.0 0.00 0.00 0.00 61 1016.5
20260902175719 33 18 0.0 0.0 0.00 0.00 0.00 59 1016.7
20260902175215 33 18 0.0 0.0 0.00 0.00 0.00 57 1016.8
20260902174710 33 19 0.0 0.0 0.00 0.00 0.00 59 1016.8
20260902174206 33 16 0.0 0.0 0.00 0.00 0.00 61 1016.9
20260902173702 33 18 0.0 0.0 0.00 0.00 0.00 62 1016.9
20260902173156 32 18 0.0 0.0 0.00 0.00 0.00 62 1017.0
20260902172656 32 18 0.0 0.0 0.00 0.00 0.00 62 1016.9
20260902172155 32 18 0.0 0.0 0.00 0.00 0.00 63 1017.1
20260902171651 32 18 0.0 0.0 0.00 0.00 0.00 64 1017.0
20260902171147 32 17 0.0 1.6 0.00 0.00 0.00 62 1017.4
20260902170643 32 12 0.0 0.0 0.00 0.00 0.00 65 1017.3
20260902170138 32 19 0.0 0.0 0.00 0.00 0.00 64 1017.1
20260902165633 32 22 0.0 0.0 0.00 0.00 0.00 67 1017.3
20260902165132 32 22 0.0 0.0 0.00 0.00 0.00 67 1017.2
20260902164628 32 13 0.0 0.0 0.00 0.00 0.00 67 1017.4
20260902164126 32 22 0.0 0.0 0.00 0.00 0.00 66 1017.5
20260902163622 31 18 0.0 0.0 0.00 0.00 0.00 68 1017.6
20260902163121 31 21 0.0 0.0 0.00 0.00 0.00 68 1017.6
20260902162620 31 21 0.0 0.0 0.00 0.00 0.00 68 1017.6
20260902162115 31 20 0.0 0.0 0.00 0.00 0.00 69 1017.7
20260902161609 32 22 0.0 0.0 0.00 0.00 0.00 66 1017.7
20260902161106 32 19 0.0 0.0 0.00 0.00 0.00 66 1017.5
20260902160602 31 22 0.0 0.0 0.00 0.00 0.00 67 1017.6
20260902160057 31 21 0.0 0.0 0.00 0.00 0.00 68 1017.6
20260902155555 31 22 0.0 1.6 0.00 0.00 0.00 67 1017.5
20260902155054 31 22 0.0 0.0 0.00 0.00 0.00 67 1017.6
20260902154549 31 21 0.0 0.0 0.00 0.00 0.00 67 1017.6
20260902154044 31 22 0.0 0.0 0.00 0.00 0.00 69 1017.5
20260902153542 31 22 0.0 0.0 0.00 0.00 0.00 70 1017.6
20260902153038 31 22 0.0 0.0 0.00 0.00 0.00 69 1017.5
20260902152535 31 22 0.0 0.0 0.00 0.00 0.00 68 1017.4
20260902152030 31 22 0.0 0.0 0.00 0.00 0.00 68 1017.5
20260902151526 31 22 0.0 0.0 0.00 0.00 0.00 69 1017.3
20260902151025 31 22 0.0 0.0 0.00 0.00 0.00 70 1017.5
20260902150521 30 23 0.0 0.0 0.00 0.00 0.00 70 1017.3
20260902150016 31 23 0.0 1.6 0.00 0.00 0.00 68 1017.4
20260902145511 31 24 0.0 0.0 0.00 0.00 0.00 70 1017.3
20260902145005 30 26 0.0 0.0 0.00 0.00 0.00 71 1017.2
20260902144502 30 22 0.0 0.0 0.00 0.00 0.00 71 1017.3
20260902144002 30 24 0.0 0.0 0.00 0.00 0.00 71 1017.3
20260902143457 30 24 0.0 0.0 0.00 0.00 0.00 73 1017.3
20260902142952 30 24 0.0 0.0 0.00 0.00 0.00 73 1017.2
20260902142448 29 24 0.0 0.0 0.00 0.00 0.00 74 1017.3
20260902141948 29 25 0.0 0.0 0.00 0.00 0.00 76 1017.2
20260902141443 28 24 0.0 0.0 0.00 0.00 0.00 76 1017.1
20260902140943 28 25 0.0 0.0 0.00 0.00 0.00 77 1017.3
20260902140439 28 25 0.0 0.0 0.00 0.00 0.00 77 1017.2
20260902135938 28 25 0.0 0.0 0.00 0.00 0.00 78 1017.3
20260902135434 28 25 0.0 0.0 0.00 0.00 0.00 77 1017.4
20260902134933 28 25 0.0 0.0 0.00 0.00 0.00 78 1017.3
20260902134429 28 25 0.0 0.0 0.00 0.00 0.00 79 1017.1
20260902133925 28 25 0.0 0.0 0.00 0.00 0.00 79 1017.3
20260902133424 27 24 0.0 0.0 0.00 0.00 0.00 79 1017.4
20260902132919 27 25 0.0 0.0 0.00 0.00 0.00 80 1017.4
20260902132414 27 25 0.0 0.0 0.00 0.00 0.00 80 1017.4
20260902131909 27 25 0.0 0.0 0.00 0.00 0.00 80 1017.3
20260902131407 27 25 0.0 0.0 0.00 0.00 0.00 81 1017.3
20260902130905 27 25 0.0 0.0 0.00 0.00 0.00 82 1017.3
20260902130402 27 24 0.0 0.0 0.00 0.00 0.00 82 1017.3
20260902125856 26 25 0.0 0.0 0.00 0.00 0.00 83 1017.2
20260902125353 26 25 0.0 0.0 0.00 0.00 0.00 84 1017.0
20260902124848 26 24 0.0 1.6 0.00 0.00 0.00 84 1017.3
20260902124344 26 25 0.0 0.0 0.00 0.00 0.00 84 1017.1
20260902123838 26 25 0.0 0.0 0.00 0.00 0.00 84 1017.2
20260902123335 26 25 0.0 0.0 0.00 0.00 0.00 85 1017.2
20260902122833 26 25 0.0 0.0 0.00 0.00 0.00 85 1017.2
20260902122330 26 25 0.0 0.0 0.00 0.00 0.00 86 1017.3
20260902121830 25 25 0.0 0.0 0.00 0.00 0.00 87 1017.1
20260902121325 25 26 0.0 0.0 0.00 0.00 0.00 87 1017.3
20260902120820 25 26 0.0 0.0 0.00 0.00 0.00 88 1017.1
20260902120316 25 27 0.0 0.0 0.00 0.00 0.00 90 1017.2
20260902115811 24 27 0.0 0.0 0.00 0.00 0.00 91 1017.2
20260902115309 24 27 0.0 0.0 0.00 0.00 0.00 91 1017.1
20260902114803 24 27 0.0 0.0 0.00 0.00 0.00 91 1017.0
20260902114259 24 27 0.0 0.0 0.00 0.00 0.00 91 1017.2
20260902113753 24 27 0.0 0.0 0.00 0.00 0.00 92 1016.9
20260902113248 24 28 0.0 0.0 0.00 0.00 0.00 92 1016.7
20260902112748 24 28 0.0 0.0 0.00 0.00 0.00 92 1016.7
20260902112245 24 28 0.0 0.0 0.00 0.00 0.00 92 1016.6
20260902111740 24 28 0.0 0.0 0.00 0.00 0.00 92 1016.6
20260902111237 24 28 0.0 0.0 0.00 0.00 0.00 93 1016.5
20260902110732 24 28 0.0 0.0 0.00 0.00 0.00 93 1016.8
20260902110228 23 28 0.0 0.0 0.00 0.00 0.00 93 1016.6
20260902105727 23 28 0.0 0.0 0.00 0.00 0.00 93 1016.6
20260902105222 23 28 0.0 0.0 0.00 0.00 0.00 93 1016.8
20260902104718 23 28 0.0 0.0 0.00 0.00 0.00 93 1016.9
20260902104214 23 29 0.0 0.0 0.00 0.00 0.00 94 1016.8
20260902103713 23 30 0.0 0.0 0.00 0.00 0.00 94 1016.8
20260902103208 23 31 0.0 0.0 0.00 0.00 0.00 94 1017.0
20260902102704 23 31 0.0 0.0 0.00 0.00 0.00 95 1016.7
20260902102201 23 69 0.0 0.0 0.00 0.00 0.00 95 1016.6
20260902101701 23 71 0.0 0.0 0.00 0.00 0.00 95 1016.9
20260902101156 23 71 0.0 0.0 0.00 0.00 0.00 95 1016.8
20260902100650 23 71 0.0 0.0 0.00 0.00 0.00 96 1016.7
20260902100145 23 70 0.0 0.0 0.00 0.00 0.00 96 1016.7
20260902095644 23 71 0.0 0.0 0.00 0.00 0.00 96 1016.8
20260902095144 23 71 0.0 0.0 0.00 0.00 0.00 96 1016.7
20260902094639 23 71 0.0 0.0 0.00 0.00 0.00 96 1016.6
20260902094135 23 68 0.0 0.0 0.00 0.00 0.00 96 1016.8
20260902093634 23 68 0.0 0.0 0.00 0.00 0.00 96 1016.7
20260902093130 23 68 0.0 0.0 0.00 0.00 0.00 96 1016.6
20260902092624 23 69 0.0 0.0 0.00 0.00 0.00 96 1016.9
20260902092119 23 68 0.0 0.0 0.00 0.00 0.00 97 1016.6
20260902091614 23 68 0.0 0.0 0.00 0.00 0.00 97 1016.5
20260902091111 23 70 0.0 0.0 0.00 0.00 0.00 97 1016.9
20260902090607 23 70 0.0 0.0 0.00 0.00 0.00 97 1016.7
20260902090106 23 72 0.0 0.0 0.00 0.00 0.00 97 1016.7
20260902085606 23 94 0.0 0.0 0.00 0.00 0.00 97 1016.7
20260902085101 23 97 0.0 0.0 0.00 0.00 0.00 97 1016.7
20260902084557 23 105 0.0 0.0 0.00 0.00 0.00 97 1016.8
20260902084052 23 98 0.0 0.0 0.00 0.00 0.00 97 1016.7
20260902083548 23 97 0.0 0.0 0.00 0.00 0.00 97 1016.7
20260902083047 23 98 0.0 0.0 0.00 0.00 0.00 97 1016.6
20260902082543 23 97 0.0 0.0 0.00 0.00 0.00 97 1016.8
20260902082039 22 98 0.0 0.0 0.00 0.00 0.00 97 1016.5
20260902081536 22 97 0.0 0.0 0.00 0.00 0.00 97 1016.6
20260902081035 22 97 0.0 0.0 0.00 0.00 0.00 97 1016.6
20260902080531 22 97 0.0 0.0 0.00 0.00 0.00 97 1016.6
20260902080027 23 98 0.0 0.0 0.00 0.00 0.00 97 1016.9
20260902075527 23 98 0.0 0.0 0.00 0.00 0.00 97 1016.5
20260902075023 23 72 0.0 0.0 0.00 0.00 0.00 97 1016.6
20260902074518 23 72 0.0 0.0 0.00 0.00 0.00 97 1016.6
20260902074013 23 97 0.0 0.0 0.00 0.00 0.00 97 1016.4
20260902073509 23 98 0.0 0.0 0.00 0.00 0.00 96 1016.4
20260902073006 23 98 0.0 0.0 0.00 0.00 0.00 96 1016.1
20260902072500 23 101 0.0 0.0 0.00 0.00 0.00 96 1016.3
20260902071957 23 101 0.0 0.0 0.00 0.00 0.00 96 1016.3
20260902071456 23 109 0.0 0.0 0.00 0.00 0.00 96 1016.3
20260902070953 23 109 0.0 0.0 0.00 0.00 0.00 96 1016.1
20260902070448 23 109 0.0 0.0 0.00 0.00 0.00 96 1016.2
20260902065947 23 109 0.0 0.0 0.00 0.00 0.00 96 1016.3
20260902065442 22 109 0.0 0.0 0.00 0.00 0.00 96 1016.4
20260902064937 22 109 0.0 0.0 0.00 0.00 0.00 96 1016.3
20260902064433 22 109 0.0 0.0 0.00 0.00 0.00 96 1016.3
20260902063928 22 109 0.0 0.0 0.00 0.00 0.00 95 1016.1
20260902063428 22 109 0.0 0.0 0.00 0.00 0.00 95 1016.3
20260902062923 22 109 0.0 0.0 0.00 0.00 0.00 95 1016.4
20260902062422 22 109 0.0 0.0 0.00 0.00 0.00 95 1016.3
20260902061917 22 109 0.0 0.0 0.00 0.00 0.00 94 1016.5
20260902061412 22 109 0.0 0.0 0.00 0.00 0.00 94 1016.4
20260902060908 22 109 0.0 0.0 0.00 0.00 0.00 94 1016.5
20260902060404 22 109 0.0 0.0 0.00 0.00 0.00 94 1016.6
20260902055900 22 109 0.0 0.0 0.00 0.00 0.00 94 1016.7
20260902055355 22 109 0.0 0.0 0.00 0.00 0.00 94 1016.6
20260902054851 22 110 0.0 0.0 0.00 0.00 0.00 94 1016.8
20260902054346 22 108 0.0 0.0 0.00 0.00 0.00 94 1016.6
20260902053842 22 112 0.0 0.0 0.00 0.00 0.00 94 1016.9
20260902053336 22 100 0.0 0.0 0.00 0.00 0.00 93 1016.9
20260902052835 22 100 0.0 0.0 0.00 0.00 0.00 93 1016.8
20260902052332 22 100 0.0 0.0 0.00 0.00 0.00 92 1016.8
20260902051831 22 100 0.0 0.0 0.00 0.00 0.00 92 1016.8
20260902051326 22 100 0.0 0.0 0.00 0.00 0.00 92 1016.8
20260902050825 22 100 0.0 0.0 0.00 0.00 0.00 92 1016.6
20260902050325 23 100 0.0 0.0 0.00 0.00 0.00 92 1016.6
20260902045820 23 100 0.0 0.0 0.00 0.00 0.00 92 1016.6
20260902045316 23 100 0.0 0.0 0.00 0.00 0.00 91 1016.6
20260902044812 23 100 0.0 0.0 0.00 0.00 0.00 91 1016.8
20260902044308 23 100 0.0 0.0 0.00 0.00 0.00 91 1016.7
20260902043802 23 100 0.0 0.0 0.00 0.00 0.00 90 1016.4
20260902043258 23 100 0.0 0.0 0.00 0.00 0.00 90 1016.6